Wetterdaten: Woche 07.12.15 - 13.12.15 (KW50)
Datum Zeit Temp. A. Feuchte A. Luftdruck Regen Wind Richtung Sonnenschein ET UV Solar Taupunkt Windchill Windben Empfang
07.12.2015 00:00 -0,1 C 99 % 1034,8 hPa 0,0 l/m 0,4 km/h (0 Bft) N 0,00 h 0,000 mm 0,0 UV-I 0 W/m -0,2 C -0,1 C 2,5 km/h (1 Bft) 97,56 %
07.12.2015 01:00 -0,4 C 99 % 1035,2 hPa 0,0 l/m 1,5 km/h (1 Bft) S-SO 0,00 h 0,000 mm 0,0 UV-I 0 W/m -0,6 C -0,4 C 4,1 km/h (1 Bft) 98,72 %
07.12.2015 02:00 -0,9 C 99 % 1035,7 hPa 0,0 l/m 0,4 km/h (0 Bft) S 0,00 h 0,000 mm 0,0 UV-I 0 W/m -1,0 C -0,9 C 1,5 km/h (1 Bft) 97,64 %
07.12.2015 03:00 -1,1 C 99 % 1035,6 hPa 0,0 l/m 1,4 km/h (1 Bft) S 0,00 h 0,000 mm 0,0 UV-I 0 W/m -1,3 C -1,1 C 4,0 km/h (1 Bft) 98,80 %
07.12.2015 04:00 -0,6 C 99 % 1035,6 hPa 0,0 l/m 2,6 km/h (1 Bft) S-SO 0,00 h 0,000 mm 0,0 UV-I 0 W/m -0,8 C -0,6 C 6,6 km/h (2 Bft) 96,85 %
07.12.2015 05:00 -0,1 C 99 % 1035,7 hPa 0,0 l/m 1,7 km/h (1 Bft) N-NW 0,00 h 0,000 mm 0,0 UV-I 0 W/m -0,2 C -0,1 C 4,1 km/h (1 Bft) 98,86 %
07.12.2015 06:00 0,2 C 99 % 1036,0 hPa 0,0 l/m 0,7 km/h (0 Bft) S-SO 0,00 h 0,000 mm 0,0 UV-I 0 W/m 0,1 C 0,2 C 2,7 km/h (1 Bft) 97,72 %
07.12.2015 07:00 0,2 C 99 % 1036,2 hPa 0,0 l/m 1,8 km/h (1 Bft) S 0,00 h 0,000 mm 0,0 UV-I 8 W/m 0,1 C 0,2 C 5,1 km/h (1 Bft) 99,01 %
07.12.2015 08:00 0,3 C 99 % 1036,9 hPa 0,0 l/m 2,3 km/h (1 Bft) S-SO 0,33 h 0,000 mm 0,0 UV-I 53 W/m 0,1 C 0,3 C 4,9 km/h (1 Bft) 97,21 %
07.12.2015 09:00 1,0 C 99 % 1037,0 hPa 0,0 l/m 2,4 km/h (1 Bft) S-SO 0,08 h 0,025 mm 0,0 UV-I 91 W/m 0,8 C 1,0 C 6,0 km/h (2 Bft) 96,90 %
07.12.2015 10:00 2,9 C 99 % 1037,0 hPa 0,0 l/m 1,1 km/h (1 Bft) NW 1,00 h 0,026 mm 0,5 UV-I 263 W/m 2,8 C 2,9 C 3,9 km/h (1 Bft) 98,68 %
07.12.2015 11:00 4,2 C 99 % 1036,6 hPa 0,0 l/m 2,8 km/h (1 Bft) N 1,00 h 0,101 mm 0,7 UV-I 294 W/m 4,0 C 4,2 C 7,8 km/h (2 Bft) 98,22 %
07.12.2015 12:00 4,0 C 99 % 1036,1 hPa 0,0 l/m 4,7 km/h (1 Bft) NO 0,75 h 0,102 mm 0,5 UV-I 202 W/m 3,8 C 3,9 C 8,3 km/h (2 Bft) 98,87 %
07.12.2015 13:00 5,1 C 99 % 1035,6 hPa 0,0 l/m 3,1 km/h (1 Bft) NO 1,00 h 0,076 mm 0,5 UV-I 234 W/m 4,9 C 5,1 C 5,1 km/h (1 Bft) 97,94 %
07.12.2015 14:00 6,8 C 96 % 1034,9 hPa 0,0 l/m 2,1 km/h (1 Bft) SO 1,00 h 0,102 mm 0,0 UV-I 145 W/m 6,1 C 6,8 C 4,5 km/h (1 Bft) 98,84 %
07.12.2015 15:00 6,8 C 92 % 1034,8 hPa 0,0 l/m 1,2 km/h (1 Bft) O-SO 0,33 h 0,051 mm 0,0 UV-I 38 W/m 5,6 C 6,8 C 3,1 km/h (1 Bft) 98,24 %
07.12.2015 16:00 4,4 C 96 % 1034,6 hPa 0,0 l/m 1,0 km/h (0 Bft) O-SO 0,00 h 0,025 mm 0,0 UV-I 6 W/m 3,9 C 4,4 C 2,7 km/h (1 Bft) 98,67 %
07.12.2015 17:00 1,9 C 98 % 1034,8 hPa 0,0 l/m 1,9 km/h (1 Bft) N-NO 0,00 h 0,000 mm 0,0 UV-I 0 W/m 1,5 C 1,9 C 3,6 km/h (1 Bft) 97,95 %
07.12.2015 18:00 1,3 C 98 % 1035,1 hPa 0,0 l/m 1,6 km/h (1 Bft) NO 0,00 h 0,000 mm 0,0 UV-I 0 W/m 1,0 C 1,3 C 2,9 km/h (1 Bft) 99,00 %
07.12.2015 19:00 0,8 C 98 % 1035,1 hPa 0,0 l/m 1,1 km/h (1 Bft) O-NO 0,00 h 0,000 mm 0,0 UV-I 0 W/m 0,6 C 0,8 C 2,7 km/h (1 Bft) 97,24 %
07.12.2015 20:00 0,3 C 98 % 1035,1 hPa 0,0 l/m 0,9 km/h (0 Bft) O-NO 0,00 h 0,000 mm 0,0 UV-I 0 W/m -0,0 C 0,3 C 2,1 km/h (1 Bft) 98,87 %
07.12.2015 21:00 0,1 C 98 % 1035,1 hPa 0,0 l/m 1,3 km/h (1 Bft) O 0,00 h 0,000 mm 0,0 UV-I 0 W/m -0,2 C 0,1 C 3,1 km/h (1 Bft) 96,60 %
07.12.2015 22:00 1,0 C 99 % 1035,0 hPa 0,0 l/m 4,9 km/h (1 Bft) O-NO 0,00 h 0,000 mm 0,0 UV-I 0 W/m 0,8 C 0,5 C 9,4 km/h (2 Bft) 99,22 %
07.12.2015 23:00 1,8 C 99 % 1035,0 hPa 0,0 l/m 7,0 km/h (2 Bft) O-NO 0,00 h 0,000 mm 0,0 UV-I 0 W/m 1,6 C 0,8 C 11,9 km/h (2 Bft) 97,86 %
08.12.2015 00:00 2,3 C 99 % 1034,7 hPa 0,0 l/m 6,9 km/h (2 Bft) O-NO 0,00 h 0,000 mm 0,0 UV-I 0 W/m 2,2 C 1,7 C 11,6 km/h (2 Bft) 98,87 %
08.12.2015 01:00 2,3 C 99 % 1034,4 hPa 0,0 l/m 8,3 km/h (2 Bft) O-NO 0,00 h 0,000 mm 0,0 UV-I 0 W/m 2,1 C 0,4 C 13,7 km/h (3 Bft) 97,95 %
08.12.2015 02:00 1,8 C 99 % 1034,1 hPa 0,0 l/m 9,3 km/h (2 Bft) O-NO 0,00 h 0,000 mm 0,0 UV-I 0 W/m 1,7 C -0,8 C 14,8 km/h (3 Bft) 99,00 %
08.12.2015 03:00 1,2 C 99 % 1033,7 hPa 0,0 l/m 8,9 km/h (2 Bft) NO 0,00 h 0,000 mm 0,0 UV-I 0 W/m 1,1 C -1,2 C 14,8 km/h (3 Bft) 97,52 %
08.12.2015 04:00 0,7 C 99 % 1033,5 hPa 0,0 l/m 9,5 km/h (2 Bft) O-NO 0,00 h 0,000 mm 0,0 UV-I 0 W/m 0,6 C -2,2 C 16,2 km/h (3 Bft) 99,34 %
08.12.2015 05:00 0,7 C 99 % 1033,7 hPa 0,0 l/m 12,9 km/h (3 Bft) O-NO 0,00 h 0,000 mm 0,0 UV-I 0 W/m 0,5 C -4,7 C 20,0 km/h (4 Bft) 98,10 %
08.12.2015 06:00 0,5 C 99 % 1033,7 hPa 0,0 l/m 14,8 km/h (3 Bft) O-NO 0,00 h 0,000 mm 0,0 UV-I 0 W/m 0,4 C -6,1 C 22,4 km/h (4 Bft) 98,78 %
08.12.2015 07:00 0,6 C 99 % 1033,7 hPa 0,0 l/m 13,2 km/h (3 Bft) O-NO 0,00 h 0,000 mm 0,0 UV-I 0 W/m 0,5 C -5,1 C 20,2 km/h (4 Bft) 98,44 %
08.12.2015 08:00 0,7 C 99 % 1033,9 hPa 0,0 l/m 16,8 km/h (3 Bft) O-NO 0,00 h 0,000 mm 0,0 UV-I 11 W/m 0,6 C -7,1 C 24,8 km/h (4 Bft) 98,93 %
08.12.2015 09:00 0,9 C 99 % 1034,1 hPa 0,0 l/m 15,5 km/h (3 Bft) O-NO 0,00 h 0,000 mm 0,0 UV-I 20 W/m 0,7 C -6,2 C 23,4 km/h (4 Bft) 98,14 %
08.12.2015 10:00 1,0 C 99 % 1034,3 hPa 0,2 l/m 12,8 km/h (3 Bft) O-NO 0,00 h 0,000 mm 0,0 UV-I 32 W/m 0,9 C -4,3 C 19,4 km/h (3 Bft) 98,27 %
08.12.2015 11:00 1,2 C 99 % 1034,0 hPa 0,0 l/m 11,6 km/h (2 Bft) O-NO 0,00 h 0,000 mm 0,0 UV-I 39 W/m 1,1 C -3,2 C 18,9 km/h (3 Bft) 98,14 %
08.12.2015 12:00 1,3 C 99 % 1033,8 hPa 0,0 l/m 12,1 km/h (2 Bft) O-NO 0,00 h 0,025 mm 0,0 UV-I 41 W/m 1,1 C -3,3 C 19,8 km/h (4 Bft) 98,19 %
08.12.2015 13:00 1,3 C 99 % 1033,6 hPa 0,0 l/m 10,0 km/h (2 Bft) O-NO 0,00 h 0,026 mm 0,0 UV-I 22 W/m 1,1 C -1,9 C 16,4 km/h (3 Bft) 98,15 %
08.12.2015 14:00 1,3 C 99 % 1033,5 hPa 0,0 l/m 9,5 km/h (2 Bft) O-NO 0,00 h 0,000 mm 0,0 UV-I 23 W/m 1,1 C -1,6 C 15,4 km/h (3 Bft) 98,61 %
08.12.2015 15:00 1,2 C 99 % 1033,7 hPa 0,0 l/m 10,4 km/h (2 Bft) O-NO 0,00 h 0,000 mm 0,0 UV-I 8 W/m 1,1 C -2,4 C 16,4 km/h (3 Bft) 98,04 %
08.12.2015 16:00 1,2 C 99 % 1033,9 hPa 0,0 l/m 9,0 km/h (2 Bft) O-NO 0,00 h 0,000 mm 0,0 UV-I 0 W/m 1,0 C -1,3 C 15,3 km/h (3 Bft) 98,84 %
08.12.2015 17:00 1,1 C 99 % 1034,1 hPa 0,0 l/m 7,7 km/h (2 Bft) NO 0,00 h 0,000 mm 0,0 UV-I 0 W/m 0,9 C -0,2 C 12,8 km/h (3 Bft) 98,44 %
08.12.2015 18:00 1,0 C 98 % 1034,2 hPa 0,0 l/m 5,0 km/h (1 Bft) O-NO 0,00 h 0,000 mm 0,0 UV-I 0 W/m 0,8 C 1,0 C 8,8 km/h (2 Bft) 98,30 %
08.12.2015 19:00 1,0 C 98 % 1034,2 hPa 0,0 l/m 4,4 km/h (1 Bft) O-SO 0,00 h 0,000 mm 0,0 UV-I 0 W/m 0,7 C 1,0 C 8,3 km/h (2 Bft) 98,21 %
08.12.2015 20:00 0,9 C 98 % 1034,0 hPa 0,0 l/m 2,5 km/h (1 Bft) O-NO 0,00 h 0,000 mm 0,0 UV-I 0 W/m 0,6 C 0,9 C 5,6 km/h (1 Bft) 97,94 %
08.12.2015 21:00 0,9 C 98 % 1033,8 hPa 0,0 l/m 1,6 km/h (1 Bft) O-NO 0,00 h 0,000 mm 0,0 UV-I 0 W/m 0,6 C 0,9 C 4,1 km/h (1 Bft) 98,50 %
08.12.2015 22:00 0,7 C 99 % 1033,7 hPa 0,0 l/m 1,2 km/h (1 Bft) S 0,00 h 0,000 mm 0,0 UV-I 0 W/m 0,5 C 0,7 C 3,6 km/h (1 Bft) 98,29 %
08.12.2015 23:00 0,5 C 99 % 1033,8 hPa 0,0 l/m 1,5 km/h (1 Bft) S 0,00 h 0,000 mm 0,0 UV-I 0 W/m 0,3 C 0,5 C 4,1 km/h (1 Bft) 98,76 %
09.12.2015 00:00 0,4 C 99 % 1033,8 hPa 0,0 l/m 2,9 km/h (1 Bft) S 0,00 h 0,000 mm 0,0 UV-I 0 W/m 0,3 C 0,4 C 6,1 km/h (2 Bft) 98,31 %
09.12.2015 01:00 0,2 C 99 % 1033,6 hPa 0,0 l/m 2,0 km/h (1 Bft) S-SW 0,00 h 0,000 mm 0,0 UV-I 0 W/m 0,0 C 0,2 C 4,0 km/h (1 Bft) 98,87 %
09.12.2015 02:00 0,2 C 99 % 1033,9 hPa 0,0 l/m 2,2 km/h (1 Bft) S 0,00 h 0,000 mm 0,0 UV-I 0 W/m 0,0 C 0,2 C 4,4 km/h (1 Bft) 98,09 %
09.12.2015 03:00 0,2 C 99 % 1033,6 hPa 0,0 l/m 3,5 km/h (1 Bft) SW 0,00 h 0,000 mm 0,0 UV-I 0 W/m 0,1 C 0,2 C 6,4 km/h (2 Bft) 99,00 %
09.12.2015 04:00 0,3 C 99 % 1033,6 hPa 0,0 l/m 2,8 km/h (1 Bft) SW 0,00 h 0,000 mm 0,0 UV-I 0 W/m 0,2 C 0,3 C 5,7 km/h (1 Bft) 97,95 %
09.12.2015 05:00 0,3 C 99 % 1033,8 hPa 0,0 l/m 4,2 km/h (1 Bft) SW 0,00 h 0,000 mm 0,0 UV-I 0 W/m 0,2 C 0,3 C 7,2 km/h (2 Bft) 99,00 %
09.12.2015 06:00 0,4 C 99 % 1033,7 hPa 0,0 l/m 3,4 km/h (1 Bft) S-SW 0,00 h 0,000 mm 0,0 UV-I 0 W/m 0,2 C 0,4 C 6,6 km/h (2 Bft) 97,84 %
09.12.2015 07:00 0,5 C 99 % 1033,7 hPa 0,0 l/m 2,7 km/h (1 Bft) S-SW 0,00 h 0,000 mm 0,0 UV-I 3 W/m 0,4 C 0,5 C 5,3 km/h (1 Bft) 99,57 %
09.12.2015 08:00 0,7 C 99 % 1033,6 hPa 0,0 l/m 3,9 km/h (1 Bft) S 0,00 h 0,000 mm 0,0 UV-I 25 W/m 0,5 C 0,7 C 6,3 km/h (2 Bft) 97,86 %
09.12.2015 09:00 1,2 C 99 % 1033,9 hPa 0,0 l/m 1,4 km/h (1 Bft) W-NW 0,00 h 0,000 mm 0,0 UV-I 61 W/m 1,1 C 1,2 C 3,7 km/h (1 Bft) 99,22 %
09.12.2015 10:00 1,6 C 98 % 1034,1 hPa 0,0 l/m 2,2 km/h (1 Bft) S-SW 0,00 h 0,025 mm 0,0 UV-I 74 W/m 1,3 C 1,6 C 4,5 km/h (1 Bft) 98,08 %
09.12.2015 11:00 2,3 C 97 % 1033,9 hPa 0,0 l/m 4,3 km/h (1 Bft) S-SW 0,00 h 0,026 mm 0,0 UV-I 64 W/m 1,9 C 2,4 C 7,3 km/h (2 Bft) 99,08 %
09.12.2015 12:00 3,2 C 96 % 1033,9 hPa 0,0 l/m 6,5 km/h (2 Bft) SW 0,00 h 0,025 mm 0,0 UV-I 60 W/m 2,5 C 2,6 C 11,6 km/h (2 Bft) 97,65 %
09.12.2015 13:00 3,4 C 96 % 1034,1 hPa 0,0 l/m 6,7 km/h (2 Bft) W-SW 0,00 h 0,026 mm 0,0 UV-I 42 W/m 2,8 C 2,7 C 12,5 km/h (3 Bft) 99,07 %
09.12.2015 14:00 4,3 C 96 % 1034,7 hPa 0,0 l/m 11,1 km/h (2 Bft) W-SW 0,00 h 0,025 mm 0,0 UV-I 15 W/m 3,7 C 0,9 C 19,1 km/h (3 Bft) 97,53 %
09.12.2015 15:00 5,0 C 94 % 1035,8 hPa 0,2 l/m 17,5 km/h (3 Bft) W-SW 0,00 h 0,000 mm 0,0 UV-I 12 W/m 4,1 C -2,0 C 28,4 km/h (4 Bft) 98,92 %
09.12.2015 16:00 4,4 C 94 % 1036,7 hPa 1,8 l/m 15,6 km/h (3 Bft) W 0,00 h 0,025 mm 0,0 UV-I 0 W/m 3,6 C -1,9 C 25,3 km/h (4 Bft) 97,58 %
09.12.2015 17:00 3,6 C 95 % 1037,6 hPa 2,2 l/m 16,5 km/h (3 Bft) W-SW 0,00 h 0,000 mm 0,0 UV-I 0 W/m 2,9 C -3,4 C 26,3 km/h (4 Bft) 99,28 %
09.12.2015 18:00 3,9 C 97 % 1038,4 hPa 1,8 l/m 11,4 km/h (2 Bft) SW 0,00 h 0,000 mm 0,0 UV-I 0 W/m 3,5 C -0,0 C 18,2 km/h (3 Bft) 97,66 %
09.12.2015 19:00 4,2 C 97 % 1039,0 hPa 0,6 l/m 10,0 km/h (2 Bft) SW 0,00 h 0,000 mm 0,0 UV-I 0 W/m 3,8 C 1,3 C 16,0 km/h (3 Bft) 99,05 %
09.12.2015 20:00 4,5 C 97 % 1039,1 hPa 0,0 l/m 10,4 km/h (2 Bft) SW 0,00 h 0,000 mm 0,0 UV-I 0 W/m 4,0 C 1,3 C 16,8 km/h (3 Bft) 97,50 %
09.12.2015 21:00 4,5 C 97 % 1039,3 hPa 0,2 l/m 11,3 km/h (2 Bft) SW 0,00 h 0,000 mm 0,0 UV-I 0 W/m 4,1 C 0,6 C 17,6 km/h (3 Bft) 98,88 %
09.12.2015 22:00 4,7 C 96 % 1039,3 hPa 0,0 l/m 8,8 km/h (2 Bft) SW 0,00 h 0,000 mm 0,0 UV-I 0 W/m 4,1 C 2,6 C 14,0 km/h (3 Bft) 97,42 %
09.12.2015 23:00 4,6 C 96 % 1039,5 hPa 0,0 l/m 6,0 km/h (2 Bft) W-SW 0,00 h 0,000 mm 0,0 UV-I 0 W/m 4,1 C 4,0 C 10,5 km/h (2 Bft) 98,63 %
10.12.2015 00:00 4,5 C 96 % 1039,6 hPa 0,0 l/m 6,4 km/h (2 Bft) W-SW 0,00 h 0,000 mm 0,0 UV-I 0 W/m 4,0 C 4,3 C 11,2 km/h (2 Bft) 97,29 %
10.12.2015 01:00 4,3 C 97 % 1039,6 hPa 0,0 l/m 3,3 km/h (1 Bft) W-SW 0,00 h 0,000 mm 0,0 UV-I 0 W/m 3,8 C 4,3 C 6,8 km/h (2 Bft) 98,43 %
10.12.2015 02:00 3,8 C 97 % 1039,7 hPa 0,0 l/m 4,3 km/h (1 Bft) W-SW 0,00 h 0,000 mm 0,0 UV-I 0 W/m 3,4 C 3,8 C 7,4 km/h (2 Bft) 98,37 %
10.12.2015 03:00 2,7 C 97 % 1039,5 hPa 0,0 l/m 3,2 km/h (1 Bft) S-SW 0,00 h 0,000 mm 0,0 UV-I 0 W/m 2,4 C 2,7 C 5,3 km/h (1 Bft) 98,26 %
10.12.2015 04:00 2,1 C 98 % 1039,2 hPa 0,0 l/m 2,3 km/h (1 Bft) S-SW 0,00 h 0,000 mm 0,0 UV-I 0 W/m 1,8 C 2,1 C 4,3 km/h (1 Bft) 98,52 %
10.12.2015 05:00 1,5 C 98 % 1039,0 hPa 0,0 l/m 0,8 km/h (0 Bft) S 0,00 h 0,000 mm 0,0 UV-I 0 W/m 1,2 C 1,5 C 2,1 km/h (1 Bft) 98,23 %
10.12.2015 06:00 0,3 C 98 % 1039,1 hPa 0,0 l/m 1,2 km/h (1 Bft) S 0,00 h 0,000 mm 0,0 UV-I 0 W/m 0,1 C 0,3 C 2,4 km/h (1 Bft) 98,86 %
10.12.2015 07:00 1,8 C 99 % 1039,3 hPa 0,0 l/m 0,8 km/h (0 Bft) W-SW 0,00 h 0,000 mm 0,0 UV-I 4 W/m 1,7 C 1,8 C 2,5 km/h (1 Bft) 97,45 %
10.12.2015 08:00 2,1 C 99 % 1039,3 hPa 0,0 l/m 2,3 km/h (1 Bft) S 0,08 h 0,000 mm 0,0 UV-I 37 W/m 1,9 C 2,1 C 5,2 km/h (1 Bft) 98,92 %
10.12.2015 09:00 2,3 C 99 % 1039,3 hPa 0,0 l/m 3,2 km/h (1 Bft) S 0,83 h 0,025 mm 0,0 UV-I 135 W/m 2,1 C 2,3 C 6,0 km/h (2 Bft) 98,02 %
10.12.2015 10:00 3,1 C 98 % 1039,4 hPa 0,0 l/m 3,8 km/h (1 Bft) SW 0,00 h 0,051 mm 0,0 UV-I 88 W/m 2,8 C 3,1 C 6,9 km/h (2 Bft) 99,12 %
10.12.2015 11:00 2,9 C 97 % 1038,9 hPa 0,0 l/m 1,9 km/h (1 Bft) S-SW 0,00 h 0,026 mm 0,0 UV-I 68 W/m 2,5 C 2,9 C 5,1 km/h (1 Bft) 98,15 %
10.12.2015 12:00 2,5 C 98 % 1038,3 hPa 0,0 l/m 2,2 km/h (1 Bft) NO 0,00 h 0,025 mm 0,0 UV-I 58 W/m 2,3 C 2,5 C 4,7 km/h (1 Bft) 99,39 %
10.12.2015 13:00 2,4 C 99 % 1037,5 hPa 0,0 l/m 2,1 km/h (1 Bft) S-SO 0,00 h 0,025 mm 0,0 UV-I 51 W/m 2,2 C 2,4 C 5,5 km/h (1 Bft) 97,38 %
10.12.2015 14:00 2,4 C 99 % 1036,7 hPa 0,0 l/m 1,6 km/h (1 Bft) O-NO 0,00 h 0,026 mm 0,0 UV-I 38 W/m 2,2 C 2,4 C 4,4 km/h (1 Bft) 98,85 %
10.12.2015 15:00 2,5 C 98 % 1036,2 hPa 0,0 l/m 1,7 km/h (1 Bft) NO 0,00 h 0,025 mm 0,0 UV-I 14 W/m 2,3 C 2,5 C 4,7 km/h (1 Bft) 97,69 %
10.12.2015 16:00 2,7 C 98 % 1035,8 hPa 0,0 l/m 2,2 km/h (1 Bft) N-NO 0,00 h 0,000 mm 0,0 UV-I 1 W/m 2,4 C 2,7 C 5,3 km/h (1 Bft) 98,82 %
10.12.2015 17:00 2,9 C 96 % 1035,5 hPa 0,0 l/m 4,1 km/h (1 Bft) NO 0,00 h 0,000 mm 0,0 UV-I 0 W/m 2,3 C 2,9 C 7,0 km/h (2 Bft) 97,40 %
10.12.2015 18:00 2,9 C 95 % 1035,4 hPa 0,0 l/m 3,4 km/h (1 Bft) N-NO 0,00 h 0,000 mm 0,0 UV-I 0 W/m 2,2 C 2,9 C 7,6 km/h (2 Bft) 99,29 %
10.12.2015 19:00 2,8 C 95 % 1035,1 hPa 0,0 l/m 3,8 km/h (1 Bft) O-NO 0,00 h 0,000 mm 0,0 UV-I 0 W/m 2,1 C 2,8 C 6,3 km/h (2 Bft) 98,15 %
10.12.2015 20:00 2,6 C 95 % 1034,5 hPa 0,0 l/m 5,0 km/h (1 Bft) O-NO 0,00 h 0,000 mm 0,0 UV-I 0 W/m 1,9 C 2,6 C 9,0 km/h (2 Bft) 98,28 %
10.12.2015 21:00 2,2 C 94 % 1034,2 hPa 0,0 l/m 5,5 km/h (1 Bft) NO 0,00 h 0,000 mm 0,0 UV-I 0 W/m 1,4 C 2,1 C 9,5 km/h (2 Bft) 97,27 %
10.12.2015 22:00 1,9 C 95 % 1033,6 hPa 0,0 l/m 5,0 km/h (1 Bft) O-NO 0,00 h 0,000 mm 0,0 UV-I 0 W/m 1,1 C 1,8 C 10,2 km/h (2 Bft) 98,79 %
10.12.2015 23:00 1,7 C 94 % 1033,2 hPa 0,0 l/m 2,5 km/h (1 Bft) O-SO 0,00 h 0,000 mm 0,0 UV-I 0 W/m 0,8 C 1,7 C 6,4 km/h (2 Bft) 97,99 %
11.12.2015 00:00 1,5 C 94 % 1033,0 hPa 0,0 l/m 3,0 km/h (1 Bft) NO 0,00 h 0,000 mm 0,0 UV-I 0 W/m 0,5 C 1,4 C 6,8 km/h (2 Bft) 98,79 %
11.12.2015 01:00 1,3 C 93 % 1032,9 hPa 0,0 l/m 1,4 km/h (1 Bft) S-SW 0,00 h 0,000 mm 0,0 UV-I 0 W/m 0,3 C 1,3 C 3,3 km/h (1 Bft) 98,03 %
11.12.2015 02:00 1,1 C 93 % 1032,6 hPa 0,0 l/m 2,0 km/h (1 Bft) S-SO 0,00 h 0,000 mm 0,0 UV-I 0 W/m 0,1 C 1,1 C 5,3 km/h (1 Bft) 98,55 %
11.12.2015 03:00 0,7 C 94 % 1032,2 hPa 0,0 l/m 1,7 km/h (1 Bft) SW 0,00 h 0,000 mm 0,0 UV-I 0 W/m -0,3 C 0,7 C 4,5 km/h (1 Bft) 98,13 %
11.12.2015 04:00 0,3 C 94 % 1031,9 hPa 0,0 l/m 2,1 km/h (1 Bft) S-SO 0,00 h 0,000 mm 0,0 UV-I 0 W/m -0,6 C 0,3 C 5,5 km/h (1 Bft) 98,42 %
11.12.2015 05:00 -0,1 C 94 % 1031,6 hPa 0,0 l/m 2,7 km/h (1 Bft) S-SO 0,00 h 0,000 mm 0,0 UV-I 0 W/m -1,0 C -0,1 C 6,6 km/h (2 Bft) 98,73 %
11.12.2015 06:00 -0,8 C 94 % 1031,5 hPa 0,0 l/m 2,7 km/h (1 Bft) S-SO 0,00 h 0,000 mm 0,0 UV-I 0 W/m -1,6 C -0,8 C 5,9 km/h (2 Bft) 97,49 %
11.12.2015 07:00 -1,3 C 95 % 1031,6 hPa 0,0 l/m 2,4 km/h (1 Bft) SO 0,00 h 0,000 mm 0,0 UV-I 6 W/m -2,0 C -1,3 C 5,5 km/h (1 Bft) 98,92 %
11.12.2015 08:00 -1,2 C 96 % 1031,7 hPa 0,0 l/m 3,0 km/h (1 Bft) S-SW 0,00 h 0,000 mm 0,0 UV-I 22 W/m -1,8 C -1,2 C 7,0 km/h (2 Bft) 98,01 %
11.12.2015 09:00 -1,4 C 96 % 1031,6 hPa 0,0 l/m 4,0 km/h (1 Bft) W-SW 0,00 h 0,000 mm 0,0 UV-I 47 W/m -1,9 C -1,4 C 7,9 km/h (2 Bft) 98,59 %
11.12.2015 10:00 -1,2 C 97 % 1031,8 hPa 0,0 l/m 3,1 km/h (1 Bft) W-SW 0,00 h 0,025 mm 0,0 UV-I 97 W/m -1,6 C -1,2 C 6,8 km/h (2 Bft) 98,16 %
11.12.2015 11:00 -0,7 C 96 % 1031,3 hPa 0,0 l/m 4,2 km/h (1 Bft) S-SW 0,17 h 0,026 mm 0,3 UV-I 148 W/m -1,2 C -0,8 C 8,9 km/h (2 Bft) 99,29 %
11.12.2015 12:00 -0,1 C 95 % 1030,6 hPa 0,0 l/m 3,0 km/h (1 Bft) SW 0,00 h 0,051 mm 0,5 UV-I 135 W/m -0,9 C -0,1 C 6,0 km/h (2 Bft) 98,44 %
11.12.2015 13:00 0,3 C 94 % 1030,1 hPa 0,0 l/m 1,1 km/h (1 Bft) SW 0,08 h 0,050 mm 0,0 UV-I 125 W/m -0,5 C 0,3 C 3,3 km/h (1 Bft) 98,73 %
11.12.2015 14:00 0,9 C 94 % 1029,8 hPa 0,0 l/m 1,3 km/h (1 Bft) S-SW 0,50 h 0,051 mm 0,0 UV-I 112 W/m 0,0 C 0,9 C 3,6 km/h (1 Bft) 98,24 %
11.12.2015 15:00 0,8 C 94 % 1029,7 hPa 0,0 l/m 1,0 km/h (0 Bft) S-SW 0,00 h 0,026 mm 0,0 UV-I 33 W/m 0,0 C 0,8 C 3,1 km/h (1 Bft) 98,00 %
11.12.2015 16:00 0,2 C 96 % 1029,4 hPa 0,0 l/m 1,1 km/h (1 Bft) S 0,00 h 0,000 mm 0,0 UV-I 3 W/m -0,3 C 0,2 C 3,5 km/h (1 Bft) 97,64 %
11.12.2015 17:00 0,2 C 97 % 1029,0 hPa 0,0 l/m 1,3 km/h (1 Bft) S-SO 0,00 h 0,000 mm 0,0 UV-I 0 W/m -0,3 C 0,2 C 3,6 km/h (1 Bft) 98,12 %
11.12.2015 18:00 0,1 C 97 % 1028,9 hPa 0,0 l/m 1,6 km/h (1 Bft) SW 0,00 h 0,000 mm 0,0 UV-I 0 W/m -0,3 C 0,1 C 4,0 km/h (1 Bft) 98,84 %
11.12.2015 19:00 -0,1 C 97 % 1029,0 hPa 0,0 l/m 2,3 km/h (1 Bft) S-SW 0,00 h 0,000 mm 0,0 UV-I 0 W/m -0,5 C -0,1 C 4,5 km/h (1 Bft) 98,72 %
11.12.2015 20:00 0,0 C 97 % 1028,9 hPa 0,0 l/m 5,7 km/h (1 Bft) S-SW 0,00 h 0,000 mm 0,0 UV-I 0 W/m -0,4 C -0,5 C 9,0 km/h (2 Bft) 98,36 %
11.12.2015 21:00 0,7 C 95 % 1028,9 hPa 0,0 l/m 5,0 km/h (1 Bft) SW 0,00 h 0,000 mm 0,0 UV-I 0 W/m -0,1 C 0,2 C 8,6 km/h (2 Bft) 98,72 %
11.12.2015 22:00 3,3 C 84 % 1028,5 hPa 0,0 l/m 9,8 km/h (2 Bft) SW 0,00 h 0,000 mm 0,0 UV-I 0 W/m 0,9 C 0,4 C 16,0 km/h (3 Bft) 97,94 %
11.12.2015 23:00 3,5 C 83 % 1028,1 hPa 0,0 l/m 9,6 km/h (2 Bft) SW 0,00 h 0,025 mm 0,0 UV-I 0 W/m 0,8 C 0,7 C 15,2 km/h (3 Bft) 99,56 %
12.12.2015 00:00 4,4 C 80 % 1027,5 hPa 0,0 l/m 10,9 km/h (2 Bft) SW 0,00 h 0,025 mm 0,0 UV-I 0 W/m 1,2 C 0,8 C 16,9 km/h (3 Bft) 99,49 %
12.12.2015 01:00 5,3 C 79 % 1026,9 hPa 0,0 l/m 17,8 km/h (3 Bft) SW 0,00 h 0,025 mm 0,0 UV-I 0 W/m 1,9 C -1,8 C 28,0 km/h (4 Bft) 98,61 %
12.12.2015 02:00 5,3 C 79 % 1027,0 hPa 0,0 l/m 12,0 km/h (2 Bft) SW 0,00 h 0,025 mm 0,0 UV-I 0 W/m 1,9 C 1,3 C 19,3 km/h (3 Bft) 99,93 %
12.12.2015 03:00 5,8 C 76 % 1026,5 hPa 0,0 l/m 13,2 km/h (3 Bft) SW 0,00 h 0,025 mm 0,0 UV-I 0 W/m 1,8 C 1,1 C 21,9 km/h (4 Bft) 98,39 %
12.12.2015 04:00 6,5 C 73 % 1026,4 hPa 0,0 l/m 13,2 km/h (3 Bft) SW 0,00 h 0,025 mm 0,0 UV-I 0 W/m 2,1 C 1,9 C 20,8 km/h (4 Bft) 99,12 %
12.12.2015 05:00 7,1 C 70 % 1026,2 hPa 0,0 l/m 13,4 km/h (3 Bft) SW 0,00 h 0,025 mm 0,0 UV-I 0 W/m 2,1 C 2,5 C 23,8 km/h (4 Bft) 98,32 %
12.12.2015 06:00 6,9 C 71 % 1026,1 hPa 0,0 l/m 15,7 km/h (3 Bft) SW 0,00 h 0,051 mm 0,0 UV-I 0 W/m 2,1 C 1,1 C 24,5 km/h (4 Bft) 98,98 %
12.12.2015 07:00 7,3 C 70 % 1025,9 hPa 0,0 l/m 18,8 km/h (3 Bft) SW 0,00 h 0,028 mm 0,0 UV-I 0 W/m 2,1 C 0,2 C 29,6 km/h (5 Bft) 99,03 %
12.12.2015 08:00 7,6 C 68 % 1026,0 hPa 0,0 l/m 19,2 km/h (3 Bft) SW 0,00 h 0,050 mm 0,0 UV-I 12 W/m 2,0 C 0,5 C 30,9 km/h (5 Bft) 98,46 %
12.12.2015 09:00 7,8 C 66 % 1026,1 hPa 0,0 l/m 16,5 km/h (3 Bft) SW 0,00 h 0,077 mm 0,0 UV-I 29 W/m 2,0 C 1,9 C 27,2 km/h (4 Bft) 99,13 %
12.12.2015 10:00 8,2 C 67 % 1026,2 hPa 0,0 l/m 17,3 km/h (3 Bft) W-SW 0,00 h 0,076 mm 0,0 UV-I 94 W/m 2,4 C 2,0 C 27,9 km/h (4 Bft) 99,15 %
12.12.2015 11:00 7,9 C 75 % 1026,1 hPa 0,8 l/m 12,6 km/h (3 Bft) W-SW 0,00 h 0,101 mm 0,0 UV-I 80 W/m 3,7 C 3,8 C 19,2 km/h (3 Bft) 98,65 %
12.12.2015 12:00 7,8 C 82 % 1025,6 hPa 0,2 l/m 8,7 km/h (2 Bft) W-SW 0,00 h 0,077 mm 0,0 UV-I 98 W/m 4,9 C 6,1 C 14,2 km/h (3 Bft) 98,12 %
12.12.2015 13:00 8,6 C 76 % 1025,1 hPa 0,0 l/m 11,2 km/h (2 Bft) W-SW 0,00 h 0,050 mm 0,0 UV-I 47 W/m 4,7 C 5,4 C 18,0 km/h (3 Bft) 98,21 %
12.12.2015 14:00 8,7 C 77 % 1024,9 hPa 0,2 l/m 6,4 km/h (2 Bft) W-SW 0,00 h 0,051 mm 0,0 UV-I 41 W/m 4,9 C 8,1 C 10,3 km/h (2 Bft) 98,38 %
12.12.2015 15:00 8,2 C 80 % 1024,9 hPa 0,0 l/m 3,5 km/h (1 Bft) W-SW 0,00 h 0,026 mm 0,0 UV-I 13 W/m 5,0 C 8,2 C 6,4 km/h (2 Bft) 97,73 %
12.12.2015 16:00 8,3 C 76 % 1024,9 hPa 0,0 l/m 6,0 km/h (2 Bft) S-SW 0,00 h 0,025 mm 0,0 UV-I 0 W/m 4,3 C 8,2 C 10,6 km/h (2 Bft) 99,00 %
12.12.2015 17:00 8,1 C 76 % 1024,8 hPa 0,0 l/m 3,7 km/h (1 Bft) SW 0,00 h 0,025 mm 0,0 UV-I 0 W/m 4,1 C 8,1 C 6,4 km/h (2 Bft) 96,48 %
12.12.2015 18:00 7,9 C 76 % 1024,5 hPa 0,0 l/m 4,0 km/h (1 Bft) S-SW 0,00 h 0,000 mm 0,0 UV-I 0 W/m 4,0 C 7,9 C 6,1 km/h (2 Bft) 98,93 %
12.12.2015 19:00 7,3 C 79 % 1024,1 hPa 0,0 l/m 3,5 km/h (1 Bft) S 0,00 h 0,026 mm 0,0 UV-I 0 W/m 3,9 C 7,3 C 6,1 km/h (2 Bft) 96,80 %
12.12.2015 20:00 6,4 C 83 % 1023,7 hPa 0,0 l/m 1,4 km/h (1 Bft) W-SW 0,00 h 0,000 mm 0,0 UV-I 0 W/m 3,7 C 6,4 C 3,3 km/h (1 Bft) 98,52 %
12.12.2015 21:00 5,4 C 86 % 1023,2 hPa 0,0 l/m 1,1 km/h (1 Bft) W-SW 0,00 h 0,000 mm 0,0 UV-I 0 W/m 3,3 C 5,4 C 2,8 km/h (1 Bft) 97,37 %
12.12.2015 22:00 3,4 C 92 % 1022,7 hPa 0,0 l/m 2,3 km/h (1 Bft) S-SO 0,00 h 0,000 mm 0,0 UV-I 0 W/m 2,2 C 3,4 C 4,8 km/h (1 Bft) 98,17 %
12.12.2015 23:00 3,1 C 92 % 1022,2 hPa 0,0 l/m 3,4 km/h (1 Bft) S 0,00 h 0,000 mm 0,0 UV-I 0 W/m 1,9 C 3,1 C 5,9 km/h (2 Bft) 97,80 %
13.12.2015 00:00 2,4 C 92 % 1021,6 hPa 0,0 l/m 3,5 km/h (1 Bft) S-SW 0,00 h 0,000 mm 0,0 UV-I 0 W/m 1,3 C 2,4 C 5,3 km/h (1 Bft) 98,34 %
13.12.2015 01:00 2,7 C 91 % 1021,0 hPa 0,0 l/m 8,1 km/h (2 Bft) S 0,00 h 0,000 mm 0,0 UV-I 0 W/m 1,4 C 1,1 C 11,8 km/h (2 Bft) 98,00 %
13.12.2015 02:00 2,1 C 92 % 1020,7 hPa 0,0 l/m 5,4 km/h (1 Bft) SW 0,00 h 0,000 mm 0,0 UV-I 0 W/m 0,9 C 1,9 C 8,0 km/h (2 Bft) 97,79 %
13.12.2015 03:00 1,7 C 93 % 1020,3 hPa 0,0 l/m 5,2 km/h (1 Bft) S 0,00 h 0,000 mm 0,0 UV-I 0 W/m 0,7 C 1,5 C 8,2 km/h (2 Bft) 98,72 %
13.12.2015 04:00 1,3 C 94 % 1020,1 hPa 0,0 l/m 3,0 km/h (1 Bft) S 0,00 h 0,000 mm 0,0 UV-I 0 W/m 0,4 C 1,3 C 5,2 km/h (1 Bft) 97,82 %
13.12.2015 05:00 0,9 C 94 % 1020,1 hPa 0,0 l/m 3,3 km/h (1 Bft) S 0,00 h 0,000 mm 0,0 UV-I 0 W/m 0,1 C 0,9 C 5,5 km/h (1 Bft) 98,74 %
13.12.2015 06:00 0,4 C 95 % 1020,3 hPa 0,0 l/m 3,5 km/h (1 Bft) S-SW 0,00 h 0,000 mm 0,0 UV-I 0 W/m -0,4 C 0,4 C 5,7 km/h (1 Bft) 97,01 %
13.12.2015 07:00 0,2 C 95 % 1020,6 hPa 0,0 l/m 4,1 km/h (1 Bft) SW 0,00 h 0,000 mm 0,0 UV-I 7 W/m -0,6 C 0,2 C 6,9 km/h (2 Bft) 99,36 %
13.12.2015 08:00 0,3 C 95 % 1021,1 hPa 0,0 l/m 2,9 km/h (1 Bft) S-SW 0,17 h 0,000 mm 0,0 UV-I 41 W/m -0,4 C 0,3 C 5,6 km/h (1 Bft) 97,66 %
13.12.2015 09:00 1,1 C 94 % 1021,2 hPa 0,0 l/m 2,7 km/h (1 Bft) S 0,00 h 0,025 mm 0,0 UV-I 74 W/m 0,2 C 1,1 C 5,3 km/h (1 Bft) 99,07 %
13.12.2015 10:00 1,9 C 92 % 1021,6 hPa 0,0 l/m 1,1 km/h (1 Bft) N-NO 0,50 h 0,026 mm 0,1 UV-I 155 W/m 0,8 C 1,9 C 3,6 km/h (1 Bft) 97,79 %
13.12.2015 11:00 3,5 C 87 % 1021,8 hPa 0,0 l/m 1,0 km/h (0 Bft) W 0,08 h 0,051 mm 0,5 UV-I 165 W/m 1,5 C 3,5 C 3,7 km/h (1 Bft) 99,14 %
13.12.2015 12:00 4,9 C 81 % 1021,7 hPa 0,0 l/m 4,5 km/h (1 Bft) W 0,75 h 0,076 mm 0,5 UV-I 181 W/m 1,8 C 4,8 C 10,9 km/h (2 Bft) 97,02 %
13.12.2015 13:00 6,0 C 78 % 1021,5 hPa 0,0 l/m 8,5 km/h (2 Bft) W 0,83 h 0,076 mm 0,5 UV-I 162 W/m 2,5 C 4,3 C 17,6 km/h (3 Bft) 99,00 %
13.12.2015 14:00 5,8 C 82 % 1021,6 hPa 0,0 l/m 8,7 km/h (2 Bft) W 0,08 h 0,076 mm 0,0 UV-I 100 W/m 2,9 C 3,8 C 19,7 km/h (3 Bft) 97,31 %
13.12.2015 15:00 6,3 C 80 % 1021,8 hPa 0,0 l/m 8,4 km/h (2 Bft) W 0,08 h 0,051 mm 0,0 UV-I 25 W/m 3,1 C 4,5 C 16,9 km/h (3 Bft) 99,14 %
13.12.2015 16:00 6,4 C 79 % 1022,2 hPa 0,0 l/m 4,4 km/h (1 Bft) SW 0,00 h 0,025 mm 0,0 UV-I 6 W/m 3,1 C 6,4 C 8,6 km/h (2 Bft) 97,86 %
13.12.2015 17:00 6,5 C 80 % 1022,6 hPa 0,0 l/m 3,3 km/h (1 Bft) S 0,00 h 0,000 mm 0,0 UV-I 0 W/m 3,3 C 6,5 C 5,5 km/h (1 Bft) 99,06 %
13.12.2015 18:00 5,8 C 84 % 1023,1 hPa 0,0 l/m 2,8 km/h (1 Bft) N-NO 0,00 h 0,000 mm 0,0 UV-I 0 W/m 3,4 C 5,8 C 5,1 km/h (1 Bft) 97,51 %
13.12.2015 19:00 5,4 C 87 % 1023,6 hPa 0,0 l/m 1,8 km/h (1 Bft) O-NO 0,00 h 0,000 mm 0,0 UV-I 0 W/m 3,4 C 5,4 C 3,6 km/h (1 Bft) 99,01 %
13.12.2015 20:00 5,2 C 88 % 1024,0 hPa 0,0 l/m 3,5 km/h (1 Bft) NO 0,00 h 0,000 mm 0,0 UV-I 0 W/m 3,5 C 5,2 C 6,0 km/h (2 Bft) 97,87 %
13.12.2015 21:00 5,2 C 89 % 1024,0 hPa 0,0 l/m 2,3 km/h (1 Bft) S-SO 0,00 h 0,000 mm 0,0 UV-I 0 W/m 3,4 C 5,2 C 5,5 km/h (1 Bft) 98,67 %
13.12.2015 22:00 4,9 C 90 % 1024,2 hPa 0,0 l/m 2,7 km/h (1 Bft) NO 0,00 h 0,000 mm 0,0 UV-I 0 W/m 3,4 C 4,9 C 4,4 km/h (1 Bft) 97,51 %
13.12.2015 23:00 4,8 C 91 % 1024,2 hPa 0,0 l/m 0,7 km/h (0 Bft) NO 0,00 h 0,000 mm 0,0 UV-I 0 W/m 3,4 C 4,8 C 1,7 km/h (1 Bft) 99,07 %
Min-Datum _ 11.12.15 12.12.15 13.12.15 - 07.12.15 - - - - - 11.12.15 08.12.15 07.12.15 07.12.15
_ Min-Zeit 10:05 09:30 03:40 - 00:40 - - - - - 07:35 08:50 02:25 09:50
Minimum _ -1,6 C 65 % 1020,0 hPa - 0,0 km/h (0 Bft) - - - - - -2,1 C -8,7 C 0,0 km/h (0 Bft) 73,68 %
Max-Datum _ 12.12.15 07.12.15 09.12.15 09.12.15 09.12.15 - 07.12.15 07.12.15 07.12.15 07.12.15 07.12.15 12.12.15 09.12.15 07.12.15
_ Max-Zeit 14:30 00:00 23:55 17:30 15:25 - 10:25 12:00 11:15 11:50 14:50 14:30 15:25 00:50
Maximum _ 8,8 C 99 % 1039,7 hPa 2,2 l/m 24,6 km/h
W-SW (4 Bft)
- 0,17 h 0,102 mm 0,7 UV-I 333 W/m 6,4 C 8,8 C 41,8 km/h
W-SW (6 Bft)
100,00 %
Durchschnitt _ 2,6 C 93 % 1031,5 hPa #8,2 l/m 5,4 km/h (1 Bft) SW #9:40 h #2,387 mm 0,5 UV-I 68 W/m 1,5 C 1,4 C 9,6 km/h (2 Bft) 98,34 %